Hourly Data Report for June 07, 2004

SHERBROOKE A
QUEBEC

45°26'00.000" N
71°41'00.000" W
241.40 m
7028124
71610
YSC

Download Data

Hourly Data (June 2004)
Hourly Data Report for June 7, 2004
TIME
LST
Temp Definition
°C
Dew Point Definition
°C
Rel Hum Definition
%
Precip. Amount Definition
mm

Wind Dir Definition
10's deg

Wind Spd Definition
km/h
Visibility Definition
km
Stn Press Definition
kPa
Hmdx Definition


Wind Chill Definition


Weather Definition


00:00 11.9 5.6 65   14 7 15.0 98.94      
01:00 12.1 4.9 61   17 9 15.0 98.91      
02:00 11.7 5.7 67   17 9 15.0 98.87      
03:00 10.7 6.1 73   17 6 15.0 98.89      
04:00 10.6 6.7 77   9 6 15.0 98.89      
05:00 10.7 7.0 78     0 15.0 98.91      
06:00 11.3 8.0 80   11 7 15.0 98.90      
07:00 10.7 8.7 87     0 12.9 98.95     Rain
08:00 11.0 9.6 91     0 19.3 98.92     Drizzle
09:00 11.9 10.7 92     0 24.1 98.91     Cloudy
10:00 13.5 11.4 87     0 24.1 98.92     Cloudy
11:00 14.9 11.9 82   22 7 24.1 98.89     Cloudy
12:00 16.2 12.8 80   25 9 24.1 98.87     Mostly Cloudy
13:00 18.5 13.7 74   27 13 24.1 98.83     Mostly Cloudy
14:00 20.5 13.4 64   22 7 24.1 98.86     Mainly Clear
15:00 21.7 13.3 59   28 9 24.1 98.86 25   Mainly Clear
16:00 21.8 11.5 52   25 15 24.1 98.84     Mainly Clear
17:00 21.7 11.7 53   26 9 15.0 98.82      
18:00 20.9 11.1 53   27 13 15.0 98.85      
19:00 18.4 10.8 61   24 7 15.0 98.87      
20:00 16.0 11.0 72   20 6 15.0 98.88      
21:00 13.9 9.8 76   21 4 15.0 98.95      
22:00 10.9 9.6 92     0 15.0 98.96      
23:00 9.9 8.5 91     0 15.0 98.99      

Notes on Data Quality.

Legend

  • E = Estimated
  • M = Missing
  • NA = Not Available*
  • [empty] = Indicates an unobserved value
Date modified: